Weather Roundup
Issued by NWS Chicago, IL

Home | Current Version | Previous Version | Graphics & Text | Print | Product List | Glossary On
Versions: 1 2 3 4 5 6 7 8 9 10 11 12 13 14 15 16 17 18 19 20 21 22 23 24 25 26 27 28 29 30 31 32 33 34 35 36 37 38 39 40 41 42 43 44 45 46 47 48 49 50
000
NZUS59 KLOT 051121
HRRLOT

CHICAGO AREA WEATHER ROUNDUP
NATIONAL WEATHER SERVICE CHICAGO/ROMEOVILLE IL
600 AM CDT WED AUG 05 2015

NOTE: "FAIR" INDICATES FEW OR NO CLOUDS BELOW 12,000 FEET WITH NO
SIGNIFICANT WEATHER AND/OR OBSTRUCTIONS TO VISIBILITY.

* THESE STATIONS ARE NOT UNDER NWS QUALITY CONTROL. THEY ALSO MAY NOT
  REPORT WEATHER SUCH AS PRECIPITATION OR FOG.

ILZ005-006-012>014-019>023-051200-
NORTHEAST ILLINOIS

CITY           SKY/WX    TMP DP  RH WIND       PRES   REMARKS
OHARE          MOCLDY    62  58  86 W3        30.05R
MIDWAY         MOCLDY    66  59  78 CALM      30.04S
AURORA         CLEAR     54  51  90 CALM      30.06R
LANSING*       CLEAR     58  56  94 CALM      30.05R
JOLIET*        CLEAR     57  57  99 CALM      30.05R
WAUKEGAN       CLEAR     60  58  92 W5        30.04R
DUPAGE AIRPORT CLEAR     57  54  89 N3        30.05R
WHEELING       CLEAR     62  57  83 CALM      30.06S
KANKAKEE*      CLEAR     58  57  96 CALM      30.06R
MORRIS*        CLEAR     58  55  87 CALM      30.04S
LEWIS AIRPORT* CLEAR     58  56  92 CALM      30.06R
NORTHERLY IS     N/A     69  58  67 SW5         N/A
$$

WIZ051-052-058>065-066-070>072-051200-
SOUTHEAST WISCONSIN

CITY           SKY/WX    TMP DP  RH WIND       PRES   REMARKS
MILWAUKEE      PTCLDY    63  55  75 W3        30.05R
KENOSHA*       CLEAR     56  54  93 W5        30.05R
RACINE*        CLEAR     60  55  83 NW5       30.06R
BURLINGTON     CLEAR     50  50  97 CALM      30.05S
WAUKESHA       CLEAR     55  54  94 CALM      30.06S
WEST BEND      CLEAR     54  52  94 CALM      30.06R
$$

INZ001>003-010>013-019-020-051200-
NORTHWEST INDIANA

CITY           SKY/WX    TMP DP  RH WIND       PRES   REMARKS
GARY*          PTCLDY    57  57 100 CALM      30.05S
MICHIGAN CITY* NOT AVBL
RENSSELAER*    NOT AVBL
VALPARAISO     CLEAR     56  55  97 CALM      30.06R
$$

LMZ740>746-051200-
SOUTHERN LAKE MICHIGAN

STATION/POSITION TIME  SKY/WX   TEMP WIND        PRES    VSBY
                                AIR  DIR/SP/G
                 (UTC)          (F)  (DEG/KT/KT) (MB)    (MI)
HARRISON CRIB    1100            69  300/  6/  7   N/A
BURNHAM HARBOR   1100            69  270/  4/  7   N/A
CALUMET HARBOR   1000            67  230/  3/  5   N/A
BURNS HARBOR     1000            65  180/  4/  7 1017.6R
MICHIGAN CITY    1100            65  160/  3/  4   N/A
$$

ABBREVIATIONS USED IN REMARKS
   TC - TEMPERATURE IN CELSIUS
  WCI - WIND CHILL INDEX
   HX - HEAT INDEX
  VSB - VISIBILITY
$$



USA.gov is the U.S. government's official web portal to all federal, state and local government web resources and services.